, AK

(GMT )
Denali Park

Weather History for PAIN - June, 2019

Change the Weather History Date:

Saturday, June 1, 2019

  Actual Average Record
Temperature  
Mean Temperature 46 °F -  
Max Temperature 50 °F 59 °F 78 °F (1958)
Min Temperature 42 °F 35 °F 29 °F (1959)
Degree Days  
Heating Degree Days 19    
Moisture  
Dew Point 44 °F    
Average Humidity 92    
Maximum Humidity 100    
Minimum Humidity 83    
Precipitation  
Precipitation 0.76 in - - ()
Sea Level Pressure  
Sea Level Pressure 29.86 in    
Wind  
Wind Speed 2 mph (South)    
Max Wind Speed 5 mph    
Max Gust Speed -    
Visibility 10 miles    
Events Rain    
Averages and records for this station are not official NWS values.
T = Trace of Precipitation, MM = Missing Value Source: NWS Daily Summary

Daily Weather History Graph

Daily Weather History Graph

Search for Another Location

Airport or City:

Astronomy

Jun. 01, 2019 Rise Set
Actual Time 3:57 AM AKDT 11:51 PM AKDT
Civil Twilight 2:25 AM AKDT 1:21 AM AKDT
Nautical Twilight Sun does not rise Sun does not rise
Astronomical Twilight Sun does not rise Sun does not rise
Moon 4:33 AM AKDT (6/1) 9:08 PM AKDT (6/1)
Length of Visible Light 22h 55m
Length of Day
19h 53m
Waning Crescent, 3% of the Moon is Illuminated
Jun 1
Waning Crescent
Jun 3
New
Jun 9
First Quarter
Jun 17
Full
Jun 25
Last Quarter

Hourly Weather History & Observations

Time (AKDT) Temp. Windchill Dew Point Humidity Pressure Visibility Wind Dir Wind Speed Gust Speed Precip Events Conditions
12:56 AM 46.0 °F 44.8 °F 45.0 °F 96% 29.80 in 10.0 mi Variable 3.5 mph - 0.06 in Rain Light Rain
1:56 AM 45.0 °F 43.5 °F 44.1 °F 97% 29.82 in 10.0 mi South 3.5 mph - 0.07 in Rain Light Rain
2:56 AM 44.1 °F 41.5 °F 43.0 °F 96% 29.83 in 10.0 mi SSW 4.6 mph - 0.07 in Rain Light Rain
3:23 AM 44.6 °F 43.1 °F 42.8 °F 93% 29.78 in 10.0 mi South 3.5 mph - 0.03 in Rain Light Rain
3:44 AM 44.6 °F 43.1 °F 42.8 °F 93% 29.78 in 10.0 mi Variable 3.5 mph - 0.05 in Rain Rain
3:56 AM 44.1 °F 42.5 °F 42.1 °F 93% 29.83 in 10.0 mi Variable 3.5 mph - 0.06 in Rain Light Rain
4:52 AM 42.8 °F - 42.8 °F 100% 29.79 in 10.0 mi Calm Calm - 0.03 in Rain Light Rain
4:56 AM 43.0 °F 41.3 °F 42.1 °F 97% 29.84 in 10.0 mi WSW 3.5 mph - 0.03 in Rain Light Rain
5:56 AM 43.0 °F 41.3 °F 42.1 °F 97% 29.85 in 10.0 mi SSW 3.5 mph - 0.04 in Rain Light Rain
6:16 AM 42.8 °F - 42.8 °F 100% 29.80 in 10.0 mi Calm Calm - 0.02 in Rain Light Rain
6:31 AM 42.8 °F - 42.8 °F 100% 29.80 in 10.0 mi Calm Calm - 0.03 in Rain Light Rain
6:56 AM 43.0 °F - 43.0 °F 100% 29.85 in 10.0 mi Calm Calm - 0.04 in Rain Light Rain
7:25 AM 42.8 °F - 42.8 °F 100% 29.80 in 10.0 mi Calm Calm - 0.01 in Rain Light Rain
7:56 AM 43.0 °F - 42.1 °F 97% 29.86 in 10.0 mi Calm Calm - 0.03 in Rain Light Rain
8:32 AM 42.8 °F - 42.8 °F 100% 29.81 in 9.0 mi Calm Calm - 0.03 in Rain Light Rain
8:56 AM 43.0 °F - 42.1 °F 97% 29.87 in 10.0 mi Calm Calm - 0.04 in Rain Light Rain
9:49 AM 44.6 °F - 42.8 °F 93% 29.81 in 10.0 mi Calm Calm - 0.03 in Rain Light Rain
9:56 AM 45.0 °F - 43.0 °F 93% 29.87 in 10.0 mi Calm Calm - 0.04 in Rain Light Rain
10:06 AM 44.6 °F 43.1 °F 42.8 °F 93% 29.81 in 10.0 mi Variable 3.5 mph - 0.00 in Rain Light Rain
11:56 AM 46.0 °F 44.8 °F 43.0 °F 89% 29.88 in 10.0 mi Variable 3.5 mph - 0.04 in Rain Light Rain
12:33 PM 46.4 °F 45.2 °F 44.6 °F 93% 29.82 in 10.0 mi Variable 3.5 mph - 0.02 in Rain Light Rain
12:56 PM 46.9 °F - 44.1 °F 90% 29.89 in 10.0 mi Variable 3.5 mph - 0.02 in Rain Light Rain
1:36 PM 48.2 °F - 44.6 °F 87% 29.83 in 10.0 mi Variable 3.5 mph - 0.03 in Rain Light Rain
1:53 PM 48.2 °F - 44.6 °F 87% 29.83 in 10.0 mi East 3.5 mph - 0.04 in Rain Light Rain
1:56 PM 48.0 °F - 44.1 °F 86% 29.89 in 10.0 mi ESE 3.5 mph - 0.04 in Rain Light Rain
2:40 PM 48.2 °F - 44.6 °F 87% 29.84 in 10.0 mi Calm Calm - 0.02 in Rain Light Rain
2:53 PM 48.2 °F - 44.6 °F 87% 29.84 in 10.0 mi Calm Calm - 0.02 in Rain Light Rain
2:56 PM 48.0 °F - 45.0 °F 89% 29.90 in 10.0 mi Calm Calm - 0.02 in Rain Light Rain
3:56 PM 48.9 °F - 45.0 °F 86% 29.91 in 10.0 mi Calm Calm - 0.03 in Rain Light Rain
4:56 PM 48.9 °F - 45.0 °F 86% 29.91 in 10.0 mi Calm Calm - 0.01 in Rain Light Rain
5:56 PM 48.9 °F - 45.0 °F 86% 29.91 in 10.0 mi Calm Calm - 0.01 in Rain Light Rain
6:41 PM 48.2 °F - 46.4 °F 93% 29.85 in 10.0 mi Calm Calm - 0.01 in Rain Light Rain
6:56 PM 50.0 °F - 45.0 °F 83% 29.91 in 10.0 mi NE 3.5 mph - 0.01 in Rain Light Rain
7:56 PM 48.9 °F - 45.0 °F 86% 29.92 in 10.0 mi Calm Calm - 0.02 in Rain Light Rain
8:31 PM 48.2 °F - 44.6 °F 87% 29.86 in 10.0 mi Calm Calm - 0.01 in Rain Light Rain
8:56 PM 48.0 °F - 45.0 °F 89% 29.92 in 10.0 mi Calm Calm - 0.03 in Rain Light Rain
9:19 PM 48.2 °F - 44.6 °F 87% 29.86 in 10.0 mi Calm Calm - 0.00 in Rain Light Rain
9:54 PM 48.2 °F - 44.6 °F 87% 29.87 in 10.0 mi Calm Calm - 0.01 in Rain Light Rain
9:56 PM 48.0 °F - 44.1 °F 86% 29.93 in 10.0 mi Calm Calm - 0.01 in Rain Light Rain
10:56 PM 46.9 °F - 46.0 °F 97% 29.94 in 10.0 mi Calm Calm - 0.03 in Rain Light Rain
11:56 PM 46.0 °F - 45.0 °F 96% 29.95 in 6.0 mi Calm Calm - 0.01 in Rain Light Rain